Location: Voyageurs National Park
(48.5020°N, 92.9292°W)
Time: 20:39:29
(UTC-06:00)

Daily predictions for brighter satellites

Satellite Brightness Start Highest point End
(mag) Time Altitude Azimuth Time Altitude Azimuth Time Altitude Azimuth
Cosmos 1818 3.7 16:41:52 10° SW 16:47:18 83° NW 16:52:49 10° NE
Cosmos 1484 Rocket 3.5 16:46:24 10° SE 16:50:01 33° ENE 16:53:39 10° N
NOSS 2-3 (D) 4.0 16:49:14 10° SSW 16:53:56 78° SE 16:59:36 10° NE
Cosmos 1812 3.1 16:50:17 10° SSW 16:54:08 68° W 16:58:01 10° N
SJ 16-02 3.1 16:52:33 10° SE 16:54:55 14° E 16:57:19 10° ENE
COSMOS 2441 4.4 16:50:30 10° SSE 16:55:23 77° ENE 17:00:18 10° N
Cosmos 2279 Rocket 4.3 16:50:27 10° SSE 16:56:26 49° E 17:02:26 10° NNE
Okean 3 4.0 16:52:17 10° SSW 16:56:27 64° WNW 17:00:40 10° N
Cosmos 2298 Rocket 4.2 16:51:57 10° S 16:57:10 62° ESE 17:02:25 10° NNE
Cosmos 1975 Rocket 3.3 16:53:00 10° S 16:57:22 55° E 17:01:47 10° NNE
IDEFIX/ARIANE 42P 3.3 16:52:18 10° S 16:57:25 61° W 17:02:34 10° NNW
Cosmos 724 4.4 16:52:31 10° NNW 16:58:12 51° NE 17:03:50 10° ESE
Cosmos 1975 2.8 16:56:21 10° N 17:00:24 73° E 17:04:28 10° SSE
Okean 1 Rocket 4.2 16:57:59 10° NNW 17:02:19 49° W 17:06:39 10° SSW
NOSS 3-2 (A) 4.1 16:56:23 10° NW 17:03:33 58° NE 17:11:28 10° ESE
SMAP 3.3 17:00:49 10° SE 17:05:16 48° ENE 17:09:46 10° N
Cosmos 990 Rocket 4.0 17:00:22 10° SSW 17:05:29 72° ESE 17:10:41 10° NNE
Meteor 2-4 Rocket 4.5 17:04:48 10° SSE 17:09:22 29° E 17:13:54 10° NNE
NOSS 3-2 (C) 4.1 17:04:03 10° NW 17:11:09 52° NE 17:18:57 10° ESE
CSL-04 Debris 4.2 17:06:08 10° SSE 17:11:26 63° ENE 17:16:47 10° N
BREEZE-M DEB (TANK) 3.3 17:10:59 10° W 17:13:13 39° SSW 17:18:08 10° SE
Cosmos 1378 Rocket 4.3 17:08:57 10° SSW 17:13:19 56° WNW 17:17:43 10° N
Cosmos 2263 Rocket 4.0 17:13:56 10° N 17:15:57 12° NNE 17:17:42 10° NE
Meteor 1-18 Rocket 4.3 17:11:36 10° SSW 17:17:12 83° WNW 17:22:57 10° N
ATLAS 3B R/B 2.7 17:11:18 10° NW 17:18:05 90° WSW 17:24:39 10° SE
ALOS 3.3 17:16:01 10° ESE 17:19:38 23° ENE 17:23:16 10° NNE
ATLAS 2AS CENTAUR R/B 3.1 17:13:20 10° SSW 17:21:06 71° SE 17:29:09 10° NE
Meteor 1-28 Rocket 3.8 17:20:09 10° NNE 17:23:39 36° E 17:27:08 10° SSE
NOSS 2-3 (E) 4.3 17:19:17 10° SW 17:24:04 66° NW 17:29:43 11° NE
Cosmos 158 Rocket 3.8 17:19:27 10° NNW 17:24:35 70° ENE 17:29:33 10° SSE
IRAS Rocket 4.2 17:19:59 10° SSE 17:25:28 89° ENE 17:31:00 10° NNW
Cosmos 1536 Rocket 4.2 17:21:43 10° SSE 17:25:40 34° E 17:29:36 10° NNE
FENGYUN 3A 4.4 17:21:10 10° ESE 17:25:42 29° ENE 17:30:15 10° N
METEOR-M 4.4 17:21:51 10° SE 17:26:53 44° ENE 17:31:55 10° N
CZ-4 R/B 1.4 17:24:10 10° SSE 17:27:58 55° ENE 17:31:52 10° N
CSL-04 Rocket 3.7 17:22:47 10° SSE 17:28:15 89° WSW 17:33:48 10° NNW
Cosmos 468 4.5 17:25:08 10° NNW 17:30:31 80° ENE 17:35:49 10° SSE
Cosmos 1743 2.9 17:29:42 10° NNW 17:33:35 75° W 17:37:27 10° S
USA 215 3.8 17:27:51 10° SE 17:34:18 62° SW 17:40:48 10° WNW
Cosmos 2369 Rocket 4.3 17:31:57 10° WNW 17:35:31 17° NW 17:39:07 10° N
Cosmos 1697 Rocket 3.7 17:33:48 10° SSE 17:38:22 26° ESE 17:41:05 18° ENE
Cosmos 2150 Rocket 4.4 17:35:46 10° SSW 17:41:12 69° WNW 17:46:39 10° NNE
Meteor 1-19 Rocket 4.2 17:36:56 10° S 17:42:38 75° E 17:48:27 10° NNE
Abrixas rocket 2.1 17:42:34 10° WSW 17:45:49 82° S 17:47:23 28° E
Cosmos 2082 3.7 17:40:54 10° NNW 17:46:34 89° WSW 17:52:12 10° SSE
Landsat 4 4.3 17:49:54 23° NE 17:51:44 37° E 17:55:18 10° SSE
ISS -0.8 17:49:31 10° W 17:51:45 17° SW 17:53:59 10° S
Cosmos 2266 Rocket 3.9 17:46:52 10° N 17:52:58 76° E 17:59:08 10° SSE
BREEZE-M DEB (TANK) 3.4 17:55:10 10° WNW 17:57:47 71° SSW 18:02:42 13° ESE
CENTAUR R/B 3.3 17:50:45 10° NW 17:58:06 49° NE 18:04:35 16° ESE
Cosmos 1455 Rocket 3.9 17:53:56 10° NNW 17:58:16 54° W 18:02:32 10° S
Cosmos 2227 Rocket 2.8 17:52:41 10° NW 17:58:16 60° WSW 18:03:48 10° S
ERS-2 2.3 17:55:05 10° SE 17:58:37 48° ENE 18:02:11 10° N
USA 161 4.3 17:58:57 10° NNW 18:00:59 18° WNW 18:03:04 10° WSW
SPOT 3 Rocket 3.6 17:57:02 10° SE 18:02:03 54° ENE 18:07:05 10° N
USA 116 3.0 18:07:16 31° NNE 18:08:39 85° ESE 18:11:45 10° SSW
Ariane Rocket 4.2 18:05:52 10° S 18:10:42 44° W 18:15:33 10° NNW
YAOGAN 1 2.8 18:07:12 10° S 18:11:31 73° WSW 18:15:53 10° NNW
Cosmos 2251 Rocket 4.0 18:07:05 10° N 18:12:03 38° ENE 18:13:36 31° E
MOS 1 4.2 18:09:33 10° SSE 18:15:15 85° ENE 18:20:58 10° NNW
Cosmos 494 Rocket 4.0 18:10:52 10° NNW 18:16:05 56° ENE 18:21:15 10° SE
Cosmos 1269 Rocket 4.3 18:13:04 10° NNW 18:18:22 70° WSW 18:23:37 10° SSE
Cosmos 1980 Rocket 2.9 18:14:18 10° SSE 18:19:16 32° ESE 18:19:35 32° E
Meteor 1-23 Rocket 4.1 18:14:57 10° S 18:20:40 75° E 18:26:13 11° NNE
Cosmos 1125 Rocket 3.5 18:18:39 10° SSW 18:23:58 85° WNW 18:27:28 22° NNE
COSMO-SKYMED 1 2.4 18:21:49 28° NNE 18:24:02 75° ESE 18:28:22 10° S
Cosmos 2297 Rocket 3.4 18:19:25 10° NW 18:24:47 44° WSW 18:30:06 10° S
CZ-2C R/B 4.0 18:21:44 11° N 18:26:17 69° WNW 18:31:00 10° SSW
Cosmos 1244 Rocket 4.4 18:21:38 10° N 18:27:46 65° ENE 18:33:52 10° SSE
Gblst 52 Del rocket 4.5 18:23:37 10° WNW 18:29:11 69° SSW 18:33:02 23° SE
SJ 16-02 1.6 18:28:35 10° SSW 18:32:57 67° WNW 18:35:02 30° N
Cosmos 1656 3.6 18:28:10 10° SSW 18:33:46 86° WNW 18:36:33 31° NNE
Cosmos 372 Rocket 4.2 18:35:05 10° SSW 18:40:15 66° WNW 18:43:10 26° NNE
MTI 4.4 18:40:59 56° W 18:40:59 56° W 18:44:00 10° SSW
Cosmos 2227 4.1 18:37:51 10° NNW 18:43:37 65° ENE 18:45:10 46° ESE
COSMOS 2455 4.1 18:42:20 10° NNW 18:46:22 25° NNE 18:46:22 25° NNE
SL-08 R/B 4.4 18:43:18 10° N 18:49:33 64° ENE 18:55:43 10° SSE
Meteor 2-11 Rocket 4.3 18:44:11 10° S 18:50:20 88° E 18:55:58 13° N
Cosmos 1553 Rocket 4.1 18:45:58 10° SSE 18:52:10 54° E 18:52:38 53° ENE
Okean 1-7 Rocket 3.9 18:50:48 10° S 18:54:16 56° S 18:54:16 56° S
Cosmos 1417 Rocket 4.4 18:49:13 10° S 18:55:17 64° E 18:56:48 49° NE
SL-24 R/B - RUBIN 2 4.2 18:49:52 10° SSW 18:55:53 58° ESE 18:55:53 58° ESE
ALOS 3.1 18:52:14 10° S 18:56:46 50° W 19:01:20 10° NNW
Cosmos 1025 Rocket 3.1 18:52:30 10° SSW 18:56:48 71° WNW 18:56:56 71° WNW
Cosmos 1745 Rocket 3.9 18:55:01 10° N 19:01:11 63° ENE 19:01:15 63° E
Cosmos 2263 Rocket 3.3 18:56:14 10° NNW 18:59:25 30° N 18:59:25 30° N
CZ-4 R/B 4.5 19:01:10 10° SW 19:03:23 15° W 19:05:39 10° NW
Cosmos 2369 4.5 18:58:21 10° SW 19:03:52 49° NW 19:06:28 29° N
Cosmos 2278 4.4 18:58:52 10° SW 19:04:24 51° NW 19:06:54 31° N
Cosmos 2360 4.3 19:02:08 10° SSW 19:07:03 60° SSE 19:07:03 60° SSE
EO 1 Del DPAF 4.4 19:08:52 41° W 19:08:52 41° W 19:12:03 10° SW
ATLAS 2AS CENTAUR R/B 3.9 19:05:07 10° WSW 19:12:44 45° NNW 19:16:36 28° NNE
Cosmos 1241 Rocket 4.4 19:07:42 10° SW 19:14:04 80° NW 19:15:08 63° NNE
Cosmos 1697 Rocket 3.1 19:16:24 10° SW 19:21:58 58° WNW 19:22:52 52° NNW
BREEZE-M DEB (TANK) 4.2 19:26:41 10° WNW 19:28:46 47° W 19:28:46 47° W
NOSS 3-4 (A) 3.5 19:26:56 10° SW 19:33:10 73° NW 19:33:16 73° NW
NOSS 3-4 (C) 3.5 19:27:01 10° SW 19:33:16 74° NW 19:33:20 74° NW
Gbstr 26 Del rocket 4.2 19:33:47 10° WSW 19:41:19 83° WSW 19:41:19 83° WSW
CENTAUR R/B 3.4 19:41:30 10° NW 19:49:13 62° WSW 19:51:52 44° S
Cosmos 1980 Rocket 3.5 19:57:35 10° SW 20:01:24 37° W 20:01:24 37° W
SJ 16-02 4.4 20:11:13 10° WNW 20:12:04 11° NW 20:12:04 11° NW
